Regional Weather Roundup
Issued by NWS

Home | Current Version | Previous Version | Graphics & Text | Print | Product List | Glossary On
Versions: 1 2 3 4 5 6 7 8 9 10 11 12 13 14 15 16 17 18 19 20 21 22 23 24 25 26 27 28 29 30 31 32 33 34 35 36 37 38 39 40 41 42 43 44 45 46 47 48 49 50
000
ASUS43 KMPX 232301
RWRMN
WEATHER ROUNDUP FOR MINNESOTA
NATIONAL WEATHER SERVICE TWIN CITIES/CHANHASSEN MN
500 PM CST SUN NOV 23 2014


NOTE: "FAIR" INDICATES FEW OR NO CLOUDS BELOW 12,000 FEET WITH NO
SIGNIFICANT WEATHER AND/OR OBSTRUCTIONS TO VISIBILITY. N/A MEANS
CURRENT SKY AND/OR WEATHER CONDITIONS ARE NOT AVAILABLE.

MNZ060>063-068>070-240000-
   Twin Cities Metro

CITY           SKY/WX    TMP DP  RH WIND       PRES   REMARKS
TWIN CITIES    CLOUDY    40  36  86 NW10      29.39S
ST PAUL        MOCLDY    40  36  86 NW8       29.40S
CRYSTAL        CLOUDY    40  36  86 NW10      29.38S
LAKEVILLE      CLOUDY    39  37  93 W6        29.39R
EDEN PRAIRIE   CLOUDY    40  37  89 NW8       29.38S
SOUTH ST PAUL  CLOUDY    41  37  87 NW5       29.38S
LAKE ELMO      CLOUDY    39  37  93 NW3       29.39R
$$
MNZ001>005-007-008-013>017-022>024-027-028-240000-
   Northwest Minnesota

CITY           SKY/WX    TMP DP  RH WIND       PRES   REMARKS
BEMIDJI        CLOUDY    36  32  87 W7        29.39S
HALLOCK        CLOUDY    19  18  93 NW21G28   29.51R WCI   3
ROSEAU         CLOUDY    28  23  80 W12       29.43R WCI  18
WARROAD        CLOUDY    30  27  86 W10       29.42R FOG     WCI  21
THIEF RVR FALL CLOUDY    25  21  86 NW16      29.46R WCI  12
CROOKSTON      CLOUDY    25  23  93 N18       29.50R FOG     WCI  11
FOSSTON        CLOUDY    30  27  86 W13G21    29.43R WCI  20
DETROIT LAKES  CLOUDY    32  27  80 NW15      29.46R WCI  22
MOORHEAD       CLOUDY    32  25  74 W13       29.50R WCI  22
PARK RAPIDS    CLOUDY    36  30  79 W14       29.40R
MAHNOMEN       CLOUDY    32  26  79 W15       29.43R WCI  22
$$
MNZ006-009>011-018-025>026-240000-
   North Central Minnesota

CITY           SKY/WX    TMP DP  RH WIND       PRES   REMARKS
BAUDETTE       CLOUDY    34  32  92 CALM      29.39R FOG
FLAG ISLAND    FOG       32  30  93 CALM      29.39R VSB 1/2
INTL FALLS     CLOUDY    34  32  92 CALM      29.38S
WASKISH        CLOUDY    36  34  93 CALM      29.39R
BIG FORK       MOCLDY    36  34  93 CALM      29.38S FOG
LONGVILLE      CLOUDY    37  34  87 CALM      29.38S
GRAND RAPIDS   CLOUDY    36  34  93 CALM      29.38R
CRANE LAKE     CLOUDY    34  32  93 CALM      29.40F
ORR            CLOUDY    34  30  86 CALM      29.36S
COOK           CLOUDY    36  34  93 CALM      29.37F FOG
WALKER         CLOUDY    38  33  82 W3        29.38S
$$
MNZ012-019>021-037-240000-
   Northeast Minnesota

CITY           SKY/WX    TMP DP  RH WIND       PRES   REMARKS
DULUTH         CLOUDY    38  35  89 NW10      29.35S FOG
ELY            CLOUDY    36  34  93 CALM      29.37S FOG
HIBBING        CLOUDY    36  33  89 CALM      29.37S FOG
EVELETH        CLOUDY    36  36 100 W3        29.38R FOG
DULUTH HARBOR  RAIN      37  36  93 CALM      29.38R
TWO HARBORS    CLOUDY    41  36  81 NW3       29.34S HAZE
SILVER BAY     FOG       39  37  93 CALM      29.35S VSB<1/4
GRAND MARAIS     N/A     40  39  97 E6        29.38R
G MARAIS ARPRT FOG       36  34  93 E5        29.36R VSB 1
$$
MNZ029>031-032-039>041-046>048-054>057-064-240000-
   West Central Minnesota

CITY           SKY/WX    TMP DP  RH WIND       PRES   REMARKS
FERGUS FALLS   CLOUDY    32  25  74 NW20      29.50R WCI  20
WHEATON        CLOUDY    30  25  80 W22G28    29.52R WCI  17
MORRIS           N/A     36  28  75 NW17G23   29.47R
ALEXANDRIA     CLOUDY    34  27  75 NW16      29.44R WCI  24
ELBOW LAKE       N/A     32  27  79 NW18G24   29.47R WCI  21
WADENA         CLOUDY    34  27  75 NW12      29.42R WCI  25
GLENWOOD       MOCLDY    36  30  80 NW17      29.44S
APPLETON       MOCLDY    36  28  75 NW18      29.49R
BENSON         CLOUDY    36  30  80 N18       29.47R
ORTONVILLE     CLOUDY    34  25  69 NW20G31   29.49R WCI  22
MADISON        CLOUDY    39  28  65 NW17G25   29.50R
WILLMAR        CLOUDY    37  32  81 NW12      29.47R
$$
MNZ033>034-036-042>043-049>051-058-059-240000-
   Central Minnesota

CITY           SKY/WX    TMP DP  RH WIND       PRES   REMARKS
ST CLOUD       CLOUDY    38  35  89 W9        29.40S
SAUK CENTRE    CLOUDY    35  33  92 W6        29.43R WCI  30
PAYNESVILLE    CLOUDY    33  32  95 SW10      29.44R WCI  25
AITKIN         MIX PCPN  39  34  81 CALM      29.38S
PINE RIVER     CLOUDY    39  34  81 CALM      29.43S
BRAINERD       CLOUDY    36  34  92 W5        29.40R
STAPLES        CLOUDY    36  34  93 W6        29.40S
LONG PRAIRIE   CLOUDY    36  34  93 W8        29.42S
LITTLE FALLS   CLOUDY    36  32  87 W3        29.41S
LITCHFIELD     CLOUDY    37  37 100 W9        29.43S
BUFFALO        CLOUDY    37  35  93 W7        29.42R
MAPLE LAKE     CLOUDY    37  37  99 W9        29.41S
$$
MNZ037-044-045-052-053-240000-
   East Central Minnesota

CITY           SKY/WX    TMP DP  RH WIND       PRES   REMARKS
PRINCETON      DRIZZLE   37  36  93 W3        29.39S
MORA           CLOUDY    34  32  93 CALM      29.39S FOG
CAMBRIDGE      MOCLDY    39  32  75 CALM      29.37S HAZE
RUSH CITY      CLOUDY    37  36  94 CALM      29.38F
MOOSE LAKE     CLOUDY    37  34  87 CALM      29.35S
HINCKLEY       DRIZZLE   36  36 100 CALM      29.38S
CLOQUET        CLOUDY    37  36  93 NW9       29.35F FOG
MCGREGOR       CLOUDY    37  34  87 CALM      29.39R
$$
MNZ071>073-080-081-089-090-097-098-240000-
   Southwest Minnesota

CITY           SKY/WX    TMP DP  RH WIND       PRES   REMARKS
MONTEVIDEO     CLOUDY    36  34  93 NW9       29.49R
GRANITE FALLS  MOCLDY    35  30  84 W16       29.50R WCI  25
CANBY          CLOUDY    36  26  68 NW22G29   29.51R
MARSHALL       CLOUDY    37  27  65 NW17G26   29.50R
REDWOOD FALLS  CLOUDY    39  33  79 NW14      29.46R
OLIVIA         CLOUDY    36  34  93 NW10      29.45R
PIPESTONE      MOCLDY    36  28  75 NW13      29.50R
WINDOM         CLOUDY    39  34  81 NW12      29.47R
WORTHINGTON    CLOUDY    37  30  75 NW20      29.49S
JACKSON        CLOUDY    41  32  70 NW14G23   29.47R
TRACY          PTCLDY    38  31  77 NW16G25   29.49R
SLAYTON        MOCLDY    35  30  82 W20       29.49R WCI  24
$$
MNZ065>067-074>077-082>085-091>093-240000-
   South Central Minnesota

CITY           SKY/WX    TMP DP  RH WIND       PRES   REMARKS
MANKATO        CLOUDY    39  34  81 NW16      29.42R
NEW ULM        CLOUDY    39  37  93 NW18G26   29.44S
ST JAMES       CLOUDY    41  36  81 NW16      29.46R
FAIRMONT       CLOUDY    39  34  81 NW21G29   29.43R
GLENCOE        MOCLDY    39  38  95 W13       29.41S
FARIBAULT      CLOUDY    41  37  87 NW7       29.40R
OWATONNA       CLOUDY    41  37  87 NW9       29.40R
WASECA         CLOUDY    37  34  87 NW8       29.42R
ALBERT LEA     CLOUDY    39  39 100 NW9G17    29.38S
$$
MNZ078>079-086>088-094>096-240000-
   Southeast Minnesota

CITY           SKY/WX    TMP DP  RH WIND       PRES   REMARKS
ROCHESTER      LGT RAIN  45  44  97 NW15      29.36R VSB 3/4
RED WING         N/A     45  45 100 NW8       29.36R VSB 1
STANTON        CLOUDY    42  38  85 NW5       29.38R
DODGE CENTER   DRIZZLE   41  41 100 NW15      29.36S
WINONA         CLOUDY    48  46  93 CALM      29.36S FOG
AUSTIN         DRIZZLE   41  41 100 NW13      29.36F
PRESTON        FOG       46  46  97 S5        29.35S VSB 1/4
$$
ABBREVIATIONS USED IN REMARKS
   TC - TEMPERATURES IN CELSIUS
  WCI - WIND CHILL INDEX
   HX - HEAT INDEX
  VSB - VISIBILITY
$$


USA.gov is the U.S. government's official web portal to all federal, state and local government web resources and services.